Location: Marcé
(47.5801°N, 0.3280°W)
Time: 07:30:15
(UTC+01:00)

deb Explorer IX - Pass Details

Date: 07 October 2022
Orbit: 533 x 1057 km, 38.8° (Epoch: 02 December)

Event Time Altitude Azimuth Distance (km) Brightness Sun altitude
Exits shadow 06:51:09 - 209° (SSW) 2,201 ? -13.8°
Reaches altitude 10° 06:52:02 10° 201° (SSW) 1,962 ? -13.7°
Maximum altitude 06:55:11 19° 157° (SSE) 1,562 ? -13.2°
Drops below altitude 10° 06:58:38 10° 113° (ESE) 2,173 ? -12.6°
Sets 07:01:51 0° 96° (E) 3,211 ? -12.0°
